When you browse on this site, cookies collect data to enhance your experience and personalize the content and advertising you see.
Visit our Privacy Policy to learn more. By continuing to use the site, you agree to this use of cookies and data.
  • en Suisse
  • Liste des pays
  • À 7 jours
  • Température de l'eau
  • Carte satellitaire
  • Carte météo
  • Widgets météo
  • user-avatar
    Se connecter

    Météo par heure à Oranienburg

    Ce jour, 26 Mai, Dimanche

    Heure Température Précipitation Vent Pression Humidité
    00:00 +13°C° 0 mm 2 m/s 758 mmHg 77%
    01:00 +10°C° 0 mm 2 m/s 758 mmHg 82%
    02:00 +10°C° 0 mm 2 m/s 758 mmHg 85%
    03:00 +9°C° 0 mm 2 m/s 758 mmHg 88%
    04:00 +8°C° 0 mm 2 m/s 758 mmHg 91%
    05:00 +9°C° 0 mm 3 m/s 757 mmHg 86%
    06:00 +11°C° 0 mm 3 m/s 757 mmHg 81%
    07:00 +12°C° 0 mm 4 m/s 757 mmHg 76%
    08:00 +14°C° 0 mm 4 m/s 756 mmHg 70%
    09:00 +15°C° 0 mm 5 m/s 756 mmHg 64%
    10:00 +17°C° 0 mm 5 m/s 756 mmHg 58%
    11:00 +19°C° 0 mm 6 m/s 755 mmHg 55%
    12:00 +20°C° 0 mm 6 m/s 755 mmHg 52%
    13:00 +21°C° 0 mm 6 m/s 755 mmHg 49%
    14:00 +21°C° 0 mm 6 m/s 754 mmHg 52%
    15:00 +21°C° 0 mm 5 m/s 754 mmHg 54%
    16:00 +21°C° 0 mm 5 m/s 754 mmHg 57%
    17:00 +20°C° 0 mm 4 m/s 753 mmHg 60%
    18:00 +20°C° 0 mm 4 m/s 753 mmHg 63%
    19:00 +20°C° 0 mm 3 m/s 753 mmHg 67%
    20:00 +19°C° 0 mm 3 m/s 752 mmHg 70%
    21:00 +18°C° 0 mm 4 m/s 752 mmHg 73%
    22:00 +17°C° 0 mm 4 m/s 752 mmHg 76%
    23:00 +17°C° 0 mm 4 m/s 752 mmHg 77%

    Demain, 27 Mai, Lundi

    Heure Température Précipitation Vent Pression Humidité
    00:00 +17°C° 0 mm 4 m/s 752 mmHg 79%
    01:00 +17°C° 0 mm 4 m/s 752 mmHg 80%
    02:00 +15°C° 0 mm 4 m/s 752 mmHg 82%
    03:00 +15°C° 0 mm 4 m/s 751 mmHg 84%
    04:00 +14°C° 0 mm 4 m/s 751 mmHg 85%
    05:00 +14°C° 0.1 mm 4 m/s 751 mmHg 86%
    06:00 +15°C° 0.1 mm 4 m/s 751 mmHg 86%
    07:00 +15°C° 0.1 mm 5 m/s 751 mmHg 86%
    08:00 +14°C° 0.3 mm 4 m/s 752 mmHg 88%
    09:00 +14°C° 0.3 mm 4 m/s 752 mmHg 89%
    10:00 +14°C° 0.3 mm 3 m/s 752 mmHg 90%
    11:00 +16°C° 0 mm 3 m/s 752 mmHg 80%
    12:00 +18°C° 0 mm 4 m/s 752 mmHg 70%
    13:00 +19°C° 0 mm 4 m/s 753 mmHg 61%
    14:00 +20°C° 0 mm 4 m/s 752 mmHg 57%
    15:00 +21°C° 0 mm 4 m/s 752 mmHg 53%
    16:00 +21°C° 0 mm 4 m/s 752 mmHg 49%
    17:00 +20°C° 0 mm 3 m/s 752 mmHg 54%
    18:00 +19°C° 0 mm 3 m/s 752 mmHg 58%
    19:00 +18°C° 0 mm 3 m/s 752 mmHg 63%
    20:00 +17°C° 0 mm 2 m/s 752 mmHg 68%
    21:00 +15°C° 0 mm 2 m/s 753 mmHg 73%
    22:00 +13°C° 0 mm 1 m/s 753 mmHg 78%
    23:00 +13°C° 0 mm 1 m/s 753 mmHg 80%

    Après-demain, 28 Mai, Mardi

    Heure Température Précipitation Vent Pression Humidité
    00:00 +12°C° 0 mm 1 m/s 753 mmHg 82%
    01:00 +12°C° 0 mm 1 m/s 752 mmHg 84%
    02:00 +11°C° 0 mm 1 m/s 752 mmHg 86%
    03:00 +10°C° 0 mm 2 m/s 752 mmHg 88%
    04:00 +9°C° 0 mm 2 m/s 752 mmHg 90%
    05:00 +10°C° 0 mm 2 m/s 752 mmHg 84%
    06:00 +12°C° 0 mm 2 m/s 752 mmHg 78%
    07:00 +13°C° 0 mm 2 m/s 752 mmHg 72%
    08:00 +14°C° 0 mm 2 m/s 752 mmHg 67%
    09:00 +14°C° 0 mm 2 m/s 752 mmHg 62%
    10:00 +15°C° 0 mm 1 m/s 752 mmHg 57%
    11:00 +16°C° 0 mm 1 m/s 752 mmHg 55%
    12:00 +16°C° 0 mm 1 m/s 752 mmHg 54%
    13:00 +18°C° 0 mm 1 m/s 752 mmHg 52%
    14:00 +18°C° 0 mm 1 m/s 752 mmHg 53%
    15:00 +18°C° 0 mm 1 m/s 752 mmHg 53%
    16:00 +18°C° 0 mm 1 m/s 752 mmHg 53%
    17:00 +17°C° 0 mm 2 m/s 752 mmHg 58%
    18:00 +16°C° 0 mm 2 m/s 752 mmHg 63%
    19:00 +15°C° 0 mm 2 m/s 752 mmHg 68%
    20:00 +14°C° 0 mm 2 m/s 752 mmHg 73%
    21:00 +13°C° 0 mm 2 m/s 753 mmHg 78%
    22:00 +10°C° 0 mm 2 m/s 753 mmHg 84%
    23:00 +10°C° 0 mm 2 m/s 753 mmHg 85%

    29 Mai, Mercredi

    Heure Température Précipitation Vent Pression Humidité
    00:00 +9°C° 0 mm 2 m/s 753 mmHg 87%
    01:00 +9°C° 0 mm 2 m/s 753 mmHg 88%
    02:00 +9°C° 0 mm 2 m/s 753 mmHg 85%
    03:00 +9°C° 0 mm 2 m/s 754 mmHg 82%
    04:00 +9°C° 0 mm 2 m/s 754 mmHg 79%
    05:00 +9°C° 0.1 mm 2 m/s 754 mmHg 77%
    06:00 +10°C° 0.1 mm 2 m/s 755 mmHg 75%
    07:00 +10°C° 0.1 mm 2 m/s 755 mmHg 73%
    08:00 +9°C° 0.3 mm 3 m/s 756 mmHg 78%
    09:00 +8°C° 0.3 mm 4 m/s 756 mmHg 83%
    10:00 +7°C° 0.3 mm 4 m/s 757 mmHg 88%
    11:00 +8°C° 0.2 mm 4 m/s 757 mmHg 84%
    12:00 +10°C° 0.2 mm 3 m/s 758 mmHg 81%
    13:00 +10°C° 0.2 mm 3 m/s 758 mmHg 77%
    14:00 +12°C° 0 mm 3 m/s 759 mmHg 70%
    15:00 +13°C° 0 mm 3 m/s 759 mmHg 62%
    16:00 +14°C° 0 mm 4 m/s 759 mmHg 55%
    17:00 +14°C° 0 mm 3 m/s 760 mmHg 58%
    18:00 +13°C° 0 mm 3 m/s 760 mmHg 60%
    19:00 +13°C° 0 mm 2 m/s 761 mmHg 63%
    20:00 +12°C° 0 mm 2 m/s 761 mmHg 68%
    21:00 +9°C° 0 mm 2 m/s 762 mmHg 72%
    22:00 +8°C° 0 mm 1 m/s 762 mmHg 77%
    23:00 +8°C° 0 mm 1 m/s 762 mmHg 79%

    30 Mai, Jeudi

    Heure Température Précipitation Vent Pression Humidité
    00:00 +6°C° 0 mm 0 m/s 763 mmHg 80%
    01:00 +6°C° 0 mm 0 m/s 763 mmHg 82%
    02:00 +6°C° 0 mm 0 m/s 763 mmHg 82%
    03:00 +5°C° 0 mm 0 m/s 763 mmHg 82%
    04:00 +5°C° 0 mm 0 m/s 763 mmHg 82%
    05:00 +7°C° 0 mm 0 m/s 764 mmHg 77%
    06:00 +10°C° 0 mm 1 m/s 764 mmHg 71%
    07:00 +11°C° 0 mm 1 m/s 764 mmHg 66%
    08:00 +13°C° 0 mm 2 m/s 764 mmHg 61%
    09:00 +15°C° 0 mm 2 m/s 764 mmHg 56%
    10:00 +16°C° 0 mm 3 m/s 764 mmHg 51%
    11:00 +17°C° 0 mm 3 m/s 764 mmHg 47%
    12:00 +18°C° 0 mm 3 m/s 763 mmHg 44%
    13:00 +19°C° 0 mm 3 m/s 763 mmHg 40%
    14:00 +19°C° 0 mm 3 m/s 763 mmHg 44%
    15:00 +19°C° 0 mm 3 m/s 763 mmHg 47%
    16:00 +19°C° 0 mm 4 m/s 762 mmHg 50%
    17:00 +18°C° 0 mm 3 m/s 762 mmHg 55%
    18:00 +17°C° 0 mm 3 m/s 762 mmHg 61%
    19:00 +16°C° 0 mm 2 m/s 762 mmHg 66%
    20:00 +15°C° 0.1 mm 2 m/s 762 mmHg 72%
    21:00 +13°C° 0.1 mm 3 m/s 762 mmHg 77%
    22:00 +12°C° 0.1 mm 3 m/s 762 mmHg 83%
    23:00 +12°C° 0.1 mm 3 m/s 762 mmHg 86%

    31 Mai, Vendredi

    Heure Température Précipitation Vent Pression Humidité
    00:00 +12°C° 0.1 mm 3 m/s 762 mmHg 88%
    01:00 +12°C° 0.1 mm 3 m/s 762 mmHg 91%
    02:00 +11°C° 0.2 mm 3 m/s 762 mmHg 92%
    03:00 +11°C° 0.2 mm 3 m/s 763 mmHg 93%
    04:00 +10°C° 0.2 mm 2 m/s 763 mmHg 93%
    05:00 +10°C° 0.2 mm 2 m/s 763 mmHg 92%
    06:00 +10°C° 0.2 mm 2 m/s 763 mmHg 90%
    07:00 +10°C° 0.2 mm 2 m/s 764 mmHg 89%
    08:00 +10°C° 0.4 mm 2 m/s 764 mmHg 86%
    09:00 +12°C° 0.4 mm 1 m/s 765 mmHg 83%
    10:00 +12°C° 0.4 mm 1 m/s 765 mmHg 81%
    11:00 +14°C° 0 mm 1 m/s 765 mmHg 72%
    12:00 +16°C° 0 mm 1 m/s 765 mmHg 63%
    13:00 +19°C° 0 mm 1 m/s 766 mmHg 54%
    14:00 +19°C° 0 mm 1 m/s 766 mmHg 50%
    15:00 +20°C° 0 mm 1 m/s 766 mmHg 46%
    16:00 +20°C° 0 mm 1 m/s 766 mmHg 42%
    17:00 +19°C° 0 mm 1 m/s 766 mmHg 47%
    18:00 +18°C° 0 mm 1 m/s 766 mmHg 51%
    19:00 +16°C° 0 mm 2 m/s 766 mmHg 56%
    20:00 +15°C° 0 mm 2 m/s 766 mmHg 59%
    21:00 +14°C° 0 mm 2 m/s 766 mmHg 61%
    22:00 +13°C° 0 mm 2 m/s 767 mmHg 63%
    23:00 +13°C° 0 mm 2 m/s 767 mmHg 63%
    Voir plus